スワン彗星

C/2002 O6 ( SWAN )

English version
Home page
Updated on September 28, 2002

---------------------------------------------------------------------

・ プロフィール

発見日 2002年7月25日
発見光度 9等
発見者 Masayuki Suzuki (Utsunomiya, Tochigi, Japan)

・ 軌道要素

T 2002 Sept.  9.4491 TT                                 MPC
q   0.494649             (2000.0)            P               Q
z  +0.002814       Peri.   78.7480      +0.4185151      -0.8080834
                   Node   330.9520      -0.0104404      +0.4521293
e   0.998608       Incl.   58.6247      +0.9081498      +0.3775980
>From 181 observations 2002 Aug. 1-31.

・ 星図

・ 光度変化

        m1 =  9.8 + 5 logΔ + 20.0 log r  [   ,-36]  (              〜2002年 8月 4日)
        m1 =  9.5 + 5 logΔ + 10.0 log r  [-36,-17]  (2002年 8月 4日〜2002年 8月23日)
        m1 =  6.4 + 5 logΔ -  7   log r  [-17,  0]  (2002年 8月23日〜2002年 9月 9日)
        m1 = 20.7 + 5 logΔ + 40   log r  [  0,   ]  (2002年 9月 9日〜              )

        ※ 灰色の曲線は、m1 = 9.5 + 5 logΔ + 10.0 log r の光度曲線です。

---------------------------------------------------------------------

軌道要素はM.P.E.C. 2002-R17に掲載されたものです。
星図は StellaNavigator Ver.2.0 for Windows (アストロアーツ 編著 / アスキー出版局刊) で作成したものです。
光度グラフはComet for Windowsで作成したものです。

---------------------------------------------------------------------

Copyright(C) Seiichi Yoshida (comet@aerith.net). All rights reserved.